UAL1220 KEWR-KFLL

Flight info

Callsign UAL1220
Flight time N/A
Altitude 36000
Route ELVAE NECCK WHITE Q409 CRPLR PAACK/N0454F380 Q97 PRMUS CUUDA3
Aircraft B38M/M-SDE1FGHILORVWXY/HB1

Departure

Time 2026-04-26 01:05
Airport Newark Liberty International Airport (KEWR)

Arrival

Time N/A
Airport Fort Lauderdale Hollywood International Airport (KFLL)
Time Latitude Longitude Altitude Speed Heading
2026-04-26 01:04 40.66852 -74.25229 3578 ft 254 kts 184°
2026-04-26 01:05 40.65308 -74.25507 3958 ft 253 kts 186°
2026-04-26 01:05 40.63681 -74.25833 4344 ft 252 kts 187°
2026-04-26 01:05 40.62012 -74.26176 4763 ft 250 kts 187°
2026-04-26 01:05 40.60120 -74.26561 5155 ft 252 kts 188°
2026-04-26 01:06 40.58444 -74.26901 5738 ft 268 kts 189°
2026-04-26 01:06 40.56747 -74.27241 7055 ft 263 kts 191°
2026-04-26 01:06 40.54765 -74.27498 8568 ft 267 kts 183°
2026-04-26 01:06 40.52546 -74.26896 9803 ft 287 kts 165°
2026-04-26 01:07 40.50519 -74.25815 10787 ft 303 kts 162°
2026-04-26 01:07 40.46228 -74.23484 12318 ft 336 kts 163°
2026-04-26 01:07 40.43846 -74.22279 13028 ft 352 kts 163°
2026-04-26 01:08 40.40589 -74.20667 13901 ft 370 kts 163°
2026-04-26 01:08 40.37639 -74.19209 14603 ft 385 kts 162°
2026-04-26 01:08 40.35578 -74.18198 15089 ft 393 kts 163°
2026-04-26 01:08 40.32806 -74.17064 15900 ft 395 kts 171°
2026-04-26 01:09 40.29052 -74.16652 16952 ft 392 kts 189°
2026-04-26 01:09 40.26128 -74.17278 17744 ft 393 kts 196°
2026-04-26 01:09 40.20687 -74.18960 18888 ft 406 kts 198°
2026-04-26 01:10 40.17924 -74.19848 19623 ft 407 kts 198°
2026-04-26 01:10 40.15189 -74.20709 20390 ft 406 kts 198°
2026-04-26 01:10 40.12427 -74.21563 21128 ft 406 kts 197°
2026-04-26 01:10 40.09666 -74.22406 21770 ft 408 kts 198°
2026-04-26 01:11 40.06895 -74.23246 22313 ft 412 kts 198°
2026-04-26 01:11 40.04090 -74.24167 22754 ft 416 kts 202°
2026-04-26 01:11 40.01368 -74.25456 23299 ft 414 kts 209°
2026-04-26 01:11 39.98843 -74.27148 23898 ft 411 kts 214°
2026-04-26 01:12 39.96409 -74.29139 24392 ft 412 kts 218°
2026-04-26 01:12 39.94025 -74.31304 24938 ft 413 kts 220°
2026-04-26 01:12 39.91710 -74.33501 25479 ft 414 kts 221°
2026-04-26 01:12 39.89375 -74.35761 25998 ft 417 kts 221°
2026-04-26 01:13 39.87043 -74.38017 26608 ft 416 kts 221°
2026-04-26 01:13 39.84740 -74.40237 27133 ft 418 kts 221°
2026-04-26 01:13 39.82425 -74.42535 27626 ft 418 kts 224°
2026-04-26 01:13 39.80233 -74.45031 28058 ft 419 kts 227°
2026-04-26 01:14 39.78132 -74.47675 28491 ft 421 kts 229°
2026-04-26 01:14 39.76081 -74.50378 29028 ft 421 kts 230°
2026-04-26 01:14 39.74038 -74.53125 29368 ft 425 kts 230°
2026-04-26 01:14 39.72029 -74.55840 29810 ft 426 kts 230°
2026-04-26 01:15 39.69973 -74.58611 30202 ft 429 kts 230°
2026-04-26 01:15 39.67879 -74.61418 30758 ft 427 kts 230°
2026-04-26 01:15 39.65817 -74.64163 31422 ft 423 kts 230°
2026-04-26 01:15 39.63796 -74.66841 32049 ft 420 kts 229°
2026-04-26 01:16 39.61765 -74.69527 32614 ft 418 kts 229°
2026-04-26 01:16 39.59749 -74.72191 33134 ft 417 kts 229°
2026-04-26 01:16 39.57758 -74.74822 33647 ft 415 kts 229°
2026-04-26 01:16 39.55765 -74.77449 34200 ft 413 kts 229°
2026-04-26 01:17 39.53766 -74.80081 34939 ft 407 kts 230°
2026-04-26 01:17 39.51805 -74.82658 35616 ft 402 kts 229°
2026-04-26 01:17 39.49898 -74.85162 35993 ft 403 kts 230°
2026-04-26 01:17 39.47946 -74.87726 36017 ft 407 kts 230°
2026-04-26 01:18 39.44072 -74.92813 36005 ft 420 kts 230°